When you browse on this site, cookies collect data to enhance your experience and personalize the content and advertising you see.
Visit our Privacy Policy to learn more. By continuing to use the site, you agree to this use of cookies and data.
  • In Latvia
  • List of Countries
  • For 7 days
  • Water Temperature
  • Satellite Maps
  • Weather Map
  • Weather Widgets
  • user-avatar
    Login

    Hourly Weather Murfreesboro

    Today, 20 July, Saturday

    Time Temperature Precipitation Wind Pressure Humidity
    00:00 +25°C° 0 mm 2 mps 746 mmHg 91%
    01:00 +25°C° 0 mm 2 mps 746 mmHg 92%
    02:00 +25°C° 0 mm 1 mps 746 mmHg 92%
    03:00 +24°C° 0 mm 1 mps 745 mmHg 93%
    04:00 +25°C° 0 mm 1 mps 746 mmHg 92%
    05:00 +25°C° 0 mm 1 mps 746 mmHg 91%
    06:00 +24°C° 0 mm 0 mps 747 mmHg 88%
    07:00 +27°C° 1 mm 1 mps 747 mmHg 86%
    08:00 +29°C° 1 mm 1 mps 746 mmHg 84%
    09:00 +30°C° 1 mm 1 mps 746 mmHg 83%
    10:00 +31°C° 1.1 mm 1 mps 746 mmHg 77%
    11:00 +32°C° 1.1 mm 1 mps 746 mmHg 71%
    12:00 +33°C° 1.1 mm 1 mps 746 mmHg 65%
    13:00 +33°C° 0.4 mm 1 mps 745 mmHg 64%
    14:00 +34°C° 0.4 mm 1 mps 745 mmHg 62%
    15:00 +34°C° 0.4 mm 1 mps 744 mmHg 61%
    16:00 +33°C° 1.1 mm 1 mps 744 mmHg 68%
    17:00 +32°C° 1.1 mm 1 mps 744 mmHg 74%
    18:00 +30°C° 1.1 mm 1 mps 744 mmHg 80%
    19:00 +29°C° 0.2 mm 1 mps 745 mmHg 83%
    20:00 +28°C° 0.2 mm 1 mps 745 mmHg 85%
    21:00 +27°C° 0.2 mm 1 mps 745 mmHg 87%
    22:00 +26°C° 0 mm 1 mps 745 mmHg 89%
    23:00 +26°C° 0 mm 1 mps 745 mmHg 90%

    Tomorrow, 21 July, Sunday

    Time Temperature Precipitation Wind Pressure Humidity
    00:00 +25°C° 0 mm 1 mps 745 mmHg 91%
    01:00 +25°C° 0.2 mm 1 mps 745 mmHg 92%
    02:00 +25°C° 0.2 mm 2 mps 745 mmHg 93%
    03:00 +24°C° 0.2 mm 2 mps 745 mmHg 94%
    04:00 +25°C° 0.5 mm 2 mps 745 mmHg 95%
    05:00 +25°C° 0.5 mm 2 mps 745 mmHg 95%
    06:00 +25°C° 0.5 mm 2 mps 745 mmHg 95%
    07:00 +26°C° 0.5 mm 2 mps 745 mmHg 91%
    08:00 +28°C° 0.5 mm 2 mps 745 mmHg 87%
    09:00 +29°C° 0.5 mm 2 mps 745 mmHg 84%
    10:00 +30°C° 2.1 mm 2 mps 745 mmHg 80%
    11:00 +31°C° 2.1 mm 2 mps 745 mmHg 76%
    12:00 +32°C° 2.1 mm 2 mps 745 mmHg 73%
    13:00 +30°C° 1.8 mm 3 mps 745 mmHg 78%
    14:00 +29°C° 1.8 mm 3 mps 745 mmHg 82%
    15:00 +27°C° 1.8 mm 4 mps 745 mmHg 87%
    16:00 +27°C° 0.1 mm 3 mps 745 mmHg 88%
    17:00 +26°C° 0.1 mm 3 mps 745 mmHg 89%
    18:00 +26°C° 0.1 mm 2 mps 745 mmHg 90%
    19:00 +26°C° 0.1 mm 2 mps 745 mmHg 90%
    20:00 +25°C° 0.1 mm 2 mps 745 mmHg 91%
    21:00 +25°C° 0.1 mm 2 mps 745 mmHg 91%
    22:00 +24°C° 0 mm 2 mps 745 mmHg 91%
    23:00 +24°C° 0 mm 2 mps 744 mmHg 91%

    Day after tomorrow, 22 July, Monday

    Time Temperature Precipitation Wind Pressure Humidity
    00:00 +24°C° 0 mm 2 mps 744 mmHg 91%
    01:00 +24°C° 0.3 mm 2 mps 744 mmHg 92%
    02:00 +24°C° 0.3 mm 2 mps 744 mmHg 93%
    03:00 +24°C° 0.3 mm 2 mps 744 mmHg 94%
    04:00 +24°C° 0.6 mm 3 mps 744 mmHg 94%
    05:00 +24°C° 0.6 mm 3 mps 744 mmHg 94%
    06:00 +25°C° 0.6 mm 4 mps 744 mmHg 95%
    07:00 +26°C° 0 mm 4 mps 744 mmHg 89%
    08:00 +28°C° 0 mm 4 mps 744 mmHg 84%
    09:00 +29°C° 0 mm 4 mps 744 mmHg 79%
    10:00 +30°C° 1.8 mm 4 mps 744 mmHg 79%
    11:00 +30°C° 1.8 mm 5 mps 744 mmHg 79%
    12:00 +32°C° 1.8 mm 5 mps 743 mmHg 79%
    13:00 +30°C° 1.9 mm 4 mps 743 mmHg 79%
    14:00 +30°C° 1.9 mm 4 mps 743 mmHg 79%
    15:00 +30°C° 1.9 mm 4 mps 743 mmHg 79%
    16:00 +29°C° 1.4 mm 3 mps 743 mmHg 82%
    17:00 +28°C° 1.4 mm 3 mps 743 mmHg 85%
    18:00 +27°C° 1.4 mm 2 mps 743 mmHg 89%
    19:00 +26°C° 0.9 mm 2 mps 743 mmHg 90%
    20:00 +25°C° 0.9 mm 2 mps 743 mmHg 92%
    21:00 +25°C° 0.9 mm 2 mps 744 mmHg 94%
    22:00 +25°C° 0.2 mm 2 mps 744 mmHg 94%
    23:00 +24°C° 0.2 mm 2 mps 744 mmHg 95%

    23 July, Tuesday

    Time Temperature Precipitation Wind Pressure Humidity
    00:00 +24°C° 0.2 mm 2 mps 744 mmHg 96%
    01:00 +22°C° 0.3 mm 3 mps 744 mmHg 95%
    02:00 +22°C° 0.3 mm 3 mps 744 mmHg 95%
    03:00 +21°C° 0.3 mm 4 mps 744 mmHg 94%
    04:00 +21°C° 0.5 mm 4 mps 744 mmHg 94%
    05:00 +20°C° 0.5 mm 4 mps 744 mmHg 93%
    06:00 +19°C° 0.5 mm 4 mps 745 mmHg 93%
    07:00 +20°C° 0 mm 4 mps 745 mmHg 88%
    08:00 +21°C° 0 mm 5 mps 745 mmHg 83%
    09:00 +22°C° 0 mm 5 mps 746 mmHg 79%
    10:00 +23°C° 0 mm 5 mps 746 mmHg 73%
    11:00 +26°C° 0 mm 5 mps 746 mmHg 67%
    12:00 +27°C° 0 mm 5 mps 746 mmHg 62%
    13:00 +27°C° 0 mm 5 mps 746 mmHg 62%
    14:00 +27°C° 0 mm 5 mps 745 mmHg 62%
    15:00 +27°C° 0 mm 5 mps 745 mmHg 62%
    16:00 +26°C° 0 mm 5 mps 745 mmHg 65%
    17:00 +25°C° 0 mm 4 mps 745 mmHg 68%
    18:00 +23°C° 0 mm 4 mps 745 mmHg 72%
    19:00 +22°C° 0 mm 4 mps 746 mmHg 72%
    20:00 +20°C° 0 mm 3 mps 746 mmHg 73%
    21:00 +19°C° 0 mm 3 mps 747 mmHg 73%
    22:00 +19°C° 0 mm 2 mps 747 mmHg 76%
    23:00 +18°C° 0 mm 2 mps 747 mmHg 80%

    24 July, Wednesday

    Time Temperature Precipitation Wind Pressure Humidity
    00:00 +17°C° 0 mm 2 mps 747 mmHg 83%
    01:00 +17°C° 0 mm 2 mps 747 mmHg 84%
    02:00 +17°C° 0 mm 2 mps 747 mmHg 86%
    03:00 +16°C° 0 mm 2 mps 746 mmHg 88%
    04:00 +17°C° 0 mm 2 mps 747 mmHg 87%
    05:00 +17°C° 0 mm 2 mps 747 mmHg 87%
    06:00 +17°C° 0 mm 2 mps 747 mmHg 86%
    07:00 +19°C° 0 mm 2 mps 748 mmHg 79%
    08:00 +21°C° 0 mm 3 mps 748 mmHg 72%
    09:00 +24°C° 0 mm 3 mps 748 mmHg 65%
    10:00 +25°C° 0 mm 4 mps 748 mmHg 62%
    11:00 +26°C° 0 mm 4 mps 748 mmHg 58%
    12:00 +27°C° 0 mm 4 mps 748 mmHg 55%
    13:00 +27°C° 0 mm 4 mps 747 mmHg 56%
    14:00 +27°C° 0 mm 4 mps 747 mmHg 57%
    15:00 +28°C° 0 mm 4 mps 746 mmHg 58%
    16:00 +26°C° 0 mm 4 mps 746 mmHg 64%
    17:00 +25°C° 0 mm 4 mps 746 mmHg 69%
    18:00 +24°C° 0 mm 3 mps 747 mmHg 75%
    19:00 +22°C° 0 mm 3 mps 747 mmHg 79%
    20:00 +21°C° 0 mm 3 mps 747 mmHg 82%
    21:00 +20°C° 0 mm 3 mps 747 mmHg 85%
    22:00 +19°C° 0 mm 2 mps 747 mmHg 87%
    23:00 +19°C° 0 mm 2 mps 747 mmHg 88%

    25 July, Thursday

    Time Temperature Precipitation Wind Pressure Humidity
    00:00 +18°C° 0 mm 2 mps 747 mmHg 90%
    01:00 +18°C° 0 mm 2 mps 747 mmHg 90%
    02:00 +17°C° 0 mm 2 mps 747 mmHg 91%
    03:00 +17°C° 0 mm 2 mps 747 mmHg 92%
    04:00 +17°C° 0 mm 2 mps 747 mmHg 90%
    05:00 +17°C° 0 mm 2 mps 748 mmHg 89%
    06:00 +18°C° 0 mm 2 mps 748 mmHg 87%
    07:00 +20°C° 0 mm 2 mps 748 mmHg 80%
    08:00 +23°C° 0 mm 2 mps 749 mmHg 72%
    09:00 +26°C° 0 mm 2 mps 749 mmHg 64%
    10:00 +27°C° 0 mm 1 mps 749 mmHg 60%
    11:00 +29°C° 0 mm 1 mps 748 mmHg 57%
    12:00 +30°C° 0 mm 1 mps 748 mmHg 53%
    13:00 +30°C° 0 mm 1 mps 748 mmHg 54%
    14:00 +30°C° 0 mm 1 mps 748 mmHg 54%
    15:00 +30°C° 0 mm 1 mps 748 mmHg 55%
    16:00 +29°C° 0 mm 1 mps 748 mmHg 60%
    17:00 +28°C° 0 mm 1 mps 748 mmHg 66%
    18:00 +27°C° 0 mm 1 mps 748 mmHg 71%
    19:00 +26°C° 0 mm 1 mps 748 mmHg 74%
    20:00 +24°C° 0 mm 1 mps 749 mmHg 78%
    21:00 +23°C° 0 mm 1 mps 749 mmHg 81%
    22:00 +22°C° 0 mm 1 mps 749 mmHg 83%
    23:00 +22°C° 0 mm 1 mps 749 mmHg 84%
    Show more